This is the latest recevied weather packets stored in our database for station/object W1ERB-13. If no packets are shown the sender has not sent any weather packets the latest 10 day(s).
| Time | Temp. | Humidity | Pressure | Rain* | Wind** | Luminosity | Snow |
|---|---|---|---|---|---|---|---|
| 1777578148 | 12.22° C | 84% | 1005.9 hPa | 0 mm | - | 66 W/m² | - |
| 1777577844 | 12.78° C | 84% | 1005.8 hPa | 0 mm | - | 69 W/m² | - |
| 1777577540 | 12.78° C | 84% | 1005.6 hPa | 0 mm | - | 75 W/m² | - |
| 1777577237 | 12.78° C | 82% | 1005.7 hPa | 0 mm | - | 83 W/m² | - |
| 1777576933 | 12.78° C | 84% | 1005.8 hPa | 0 mm | - | 92 W/m² | - |
| 1777576629 | 12.78° C | 85% | 1005.8 hPa | 0 mm | - | 92 W/m² | - |
| 1777576324 | 12.22° C | 85% | 1005.6 hPa | 0 mm | - | 85 W/m² | - |
| 1777576020 | 12.22° C | 85% | 1005.8 hPa | 0 mm | - | 75 W/m² | - |
| 1777575717 | 12.78° C | 85% | 1005.9 hPa | 0 mm | - | 81 W/m² | - |
| 1777575413 | 12.22° C | 85% | 1005.8 hPa | 0 mm | - | 83 W/m² | - |
| 1777575109 | 12.22° C | 84% | 1005.9 hPa | 0 mm | - | 85 W/m² | - |
| 1777574804 | 12.22° C | 85% | 1005.9 hPa | 0 mm | - | 85 W/m² | - |
| 1777574502 | 12.78° C | 85% | 1006 hPa | 0 mm | - | 70 W/m² | - |
| 1777574198 | 12.78° C | 85% | 1005.9 hPa | 0 mm | - | 106 W/m² | - |
| 1777573893 | 12.78° C | 84% | 1005.8 hPa | 0 mm | - | 153 W/m² | - |
| 1777573588 | 12.78° C | 85% | 1005.9 hPa | 0 mm | - | 150 W/m² | - |
| 1777573284 | 12.22° C | 83% | 1006.1 hPa | 0 mm | - | 118 W/m² | - |
| 1777572981 | 12.22° C | 84% | 1006 hPa | 0 mm | - | 99 W/m² | - |
| 1777572677 | 12.78° C | 83% | 1006.1 hPa | 0 mm | - | 79 W/m² | - |
| 1777572377 | 13.89° C | 82% | 1005.8 hPa | 0 mm | - | 115 W/m² | - |
| 1777572073 | 13.89° C | 80% | 1006.1 hPa | 0 mm | - | 233 W/m² | - |
| 1777571768 | 12.78° C | 81% | 1005.9 hPa | 0 mm | - | 392 W/m² | - |
| 1777571466 | 12.78° C | 83% | 1005.8 hPa | 0 mm | - | 429 W/m² | - |
| 1777571162 | 12.22° C | 86% | 1006 hPa | 0 mm | - | 413 W/m² | - |
| 1777570857 | 12.22° C | 87% | 1005.9 hPa | 0 mm | - | 221 W/m² | - |
* Rain latest hour (hover to see other rain measurements)
** Current wind speed in m/s (hover to see current wind gust speed)